Regional Weather Roundup
Issued by NWS Grand Forks, ND

Home | Current Version | Previous Version | Graphics & Text | Print | Product List | Glossary On
Versions: 1 2 3 4 5 6 7 8 9 10 11 12 13 14 15 16 17 18 19 20 21 22 23 24 25 26 27 28 29 30 31 32 33 34 35 36 37 38 39 40 41 42 43 44 45 46 47 48 49 50
000
ASUS43 KFGF 302031
RWRFGF
PRAIRIE TO PINES  WEATHER ROUNDUP
NATIONAL WEATHER SERVICE EASTERN NORTH DAKOTA/GRAND FORKS ND
300 PM CDT THU OCT 30 2014

 **SATELLITE DATA USED TO AUGMENT SKY COVER AT AUTOMATED STATIONS**
 *****  WEATHER ACROSS EASTERN NORTH DAKOTA  *****

CITY           SKY/WX    TMP DP  RH WIND       PRES   REMARKS
GRAND FORKS    CLOUDY    37  22  54 N28G36    30.36R
GRAND FRKS AFB CLOUDY    38  22  52 N21G31    30.36S
GRAND FRKS NWS   N/A     36 N/A N/A VRB24       N/A
DEVILS LAKE    MOSUNNY   36  16  44 N17G26    30.39S
FARGO          CLOUDY    38  29  70 N23G32    30.32R
WAHPETON ARPT  CLOUDY    37  30  75 N23G31    30.30R
$$

 ***** WEATHER ACROSS CENTRAL AND WESTERN NORTH DAKOTA  *****

CITY           SKY/WX    TMP DP  RH WIND       PRES   REMARKS
BISMARCK       CLOUDY    36  31  82 N15       30.43R
MINOT          CLOUDY    34  24  67 N9        30.45R
JAMESTOWN      CLOUDY    35  26  69 N20G28    30.37R WCI  24
MINOT AFB      CLOUDY    33  25  73 N13       30.46R WCI  23
GARRISON         N/A     34  27  75 NE10      30.43R
WILLISTON      CLOUDY    38  31  76 N7        30.44S
DICKINSON      CLOUDY    37  31  78 NE7       30.39S
HETTINGER      CLOUDY    38  30  73 N12       30.41R
$$

 *****  OTHER AIRPORT OBSERVATIONS IN OUR AREA  *****

CITY           SKY/WX    TMP DP  RH WIND       PRES   REMARKS
WALHALLA         N/A     37  18  44 N24G31    30.41R
GRAFTON AIRPOR MOCLDY    37  19  48 N24G31    30.37R
VALLEY CITY AR FLURRIES  36  28  75 N20G25    30.36R
CANDO          FAIR      37  16  41 N17G23    30.42S
CAVALIER APRT  MOCLDY    37  18  44 N21G33    30.39R
GWINNER        CLOUDY    37  32  81 N18       30.34R
SHEYENNE NWR     N/A     38  29  70 N14       29.95S
ROLLA          FAIR      34  18  51 N16G25    30.43R WCI  23
 ***** THE ABOVE OBSERVATIONS ARE NON NWS ARE NOT QUALITY
       CONTROLLED AND MAY MIS-REPORT RAIN FOR SNOW...
$$

  *****  WEATHER ACROSS NORTHERN MINNESOTA  *****

CITY           SKY/WX    TMP DP  RH WIND       PRES   REMARKS
FLAG ISLAND    MOSUNNY   34  19  55 N33G39    30.28R WCI  19
WARROAD        MOSUNNY   36  19  51 N21G32    30.30R
ROSEAU         CLOUDY    36  23  60 N20G25    30.31R
HALLOCK        MOSUNNY   37  19  48 N20G30    30.36R
THF RVR FALLS  CLOUDY    36  25  64 NW23G29   30.31R
BAUDETTE       MOSUNNY   36  23  59 NW30G38   30.22R
WASKISH        PTSUNNY   36  27  69 NW18G25   30.22R
CROOKSTON      CLOUDY    37  25  60 N26G32    30.34R
STEPHEN NDAWN    N/A     37  25  60 N20         N/A
GREENBUSH NDAW   N/A     36  21  55 N25         N/A
$$
  *****  WEATHER ACROSS CENTRAL AND WEST MINNESOTA  *****

CITY           SKY/WX    TMP DP  RH WIND       PRES   REMARKS
FOSSTON        CLOUDY    34  27  75 NW24G30   30.29R WCI  21
BEMIDJI        CLOUDY    36  28  75 NW18G25   30.21R
PARK RAPIDS    CLOUDY    37  28  70 N17       30.20R
ELBOW LAKE     CLOUDY    39  32  74 N18G26    30.24R
WADENA         CLOUDY    37  28  70 N14G21    30.21R
DETROIT LAKES  CLOUDY    36  32  87 N18G26    30.27R
MOORHEAD       CLOUDY    37  32  81 N21G29    30.33R
FERGUS FALLS   CLOUDY    37  28  70 N24G31    30.27R
MORRIS MN      PTSUNNY   43  34  70 N28       30.22R
STAPLES        CLOUDY    39  28  65 NW18      30.19R
$$
  *****  WEATHER ELSEWHERE ACROSS MINNESOTA  *****

CITY           SKY/WX    TMP DP  RH WIND       PRES   REMARKS
DULUTH         PTSUNNY   41  33  73 NW10G18   30.07S
INTRNTL FALLS  MIX PCPN  33  27  78 N22G37    30.16R WCI  21
ELY            CLOUDY    34  34 100 NW10      30.07R
CLOQUET        CLOUDY    41  30  65 NW12      30.09S
WHEATON        CLOUDY    37  30  75 N21G29    30.30R
BRAINERD       CLOUDY    40  31  70 N14       30.16R
HIBBING        MOSUNNY   41  31  67 NW22G30   30.11R
ALEXANDRIA     CLOUDY    42  33  70 N16G25    30.20R
SAINT CLOUD    CLOUDY    46  37  71 NW13      30.14R
MINNEAPOLIS    CLOUDY    48  35  60 N9        30.10S
$$

  *****  WEATHER ACROSS SOUTH DAKOTA  *****

CITY           SKY/WX    TMP DP  RH WIND       PRES   REMARKS
SIOUX FALLS    CLOUDY    47  41  80 N20G30    30.18R
BROOKINGS      NOT AVBL
WATERTOWN      CLOUDY    40  35  83 N20G28    30.23R
HURON          CLOUDY    43  35  73 N22G28    30.28R
SISSETON         N/A     39  33  79 N21G26    30.28R
ABERDEEN       CLOUDY    41  32  70 N20G30    30.33R
MITCHELL       CLOUDY    44  38  79 N22G32    30.26R
PIERRE         MOSUNNY   44  32  62 N14       30.34R
MOBRIDGE       CLOUDY    42  32  67 N16G23    30.35R
RAPID CITY     SUNNY     52  36  54 NE18      30.32S
$$

  *****  SOME WEATHER IN NEARBY STATES *****

CITY           SKY/WX    TMP DP  RH WIND       PRES   REMARKS
GLASGOW MT     CLOUDY    37  30  75 SE12      30.40F
GREAT FALLS MT PTSUNNY   58  33  39 E9        30.21F
CHEYENNE WY    SUNNY     59  25  27 NW7       30.33F
SCOTTSBLUFF NE MOSUNNY   63  32  31 VRB7      30.30F
OMAHA NE       MOSUNNY   62  41  46 N23G31    30.07S
DES MOINES IA  MOSUNNY   63  39  41 NE6       30.00F
DAVENPORT IA   PTSUNNY   51  37  58 SE5       30.04F
CHICAGO IL     CLOUDY    50  34  54 W12       30.05F
EAU CLAIRE WI  CLOUDY    48  33  56 N5        30.07S
LA CROSSE WI   CLOUDY    47  37  68 S3        30.07S
$$

  *****  SOME NATIONAL WEATHER *****

CITY           SKY/WX    TMP DP  RH WIND       PRES   REMARKS
LA GUARDIA NY  MOSUNNY   57  37  47 NW13      29.96S
RALEIGH NC     MOSUNNY   66  39  37 NE6       29.98F
ATLANTA GA     SUNNY     67  38  34 NW8       29.98F
NEW ORLEANS LA MOSUNNY   73  44  35 N8        30.04F
OKLAHOMA CITY  SUNNY     77  35  21 N18       30.11F
ALBUQUERQUE NM SUNNY     71  16  12 VRB3      30.30F
SALT LAKE CITY MOSUNNY   65  29  25 CALM      30.20F
LOS ANGELES CA MOSUNNY   69  62  78 W15       29.97F
BOISE ID       MOSUNNY   65  39  38 CALM      30.07F
SEATTLE WA     RAIN      56  54  93 E8        29.83S
$$

*** WEATHER ACROSS MANITOBA...SASKATCHEWAN AND ONTARIO ***
                ***ONTARIO***

CITY           SKY/WX    TMP DP  RH WIND       PRES   REMARKS
GERALDTON      LGT SNOW N/A N/A N/A N3          N/A  FOG
THUNDER BAY    LGT RAIN  39  36  87 NW6       30.01S
SIOUX LOOKOUT  FLURRIES  28  23  80 N15G23    30.13R WCI  17
TORONTO        PTSUNNY   46  34  61 W9        30.04
BIG TROUT LK   NOT AVBL
PICKLE LAKE    FLURRIES  27  21  80 N14G22    30.13R WCI  15
DRYDEN         NOT AVBL
KENORA         FLURRIES  30  18  59 N18G28    30.24R WCI  18
$$
                *** MANITOBA***

CITY           SKY/WX    TMP DP  RH WIND       PRES   REMARKS
BRANDON        MOSUNNY   36  18  48 N16       30.47R
DAUPHIN        NOT AVBL
ISLAND LAKE    CLOUDY    27  21  80 N9        30.42R WCI  17
PILOT MOUND      N/A     36  18  48 N18G28      N/A
THE PAS        SUNNY     32  19  59 NW3       30.52S
THOMPSON       MOSUNNY   27  18  69 NW8       30.50  WCI  18
WINNIPEG       MOSUNNY   36  16  44 N29G37    30.40R
CHURCHILL      FLURRIES  21  19  93 NW18G28   30.41R WCI   6
GILLAM         FLURRIES  21  18  86 NE14      30.44R WCI   8
$$
                ***SASKATCHEWAN***

CITY           SKY/WX    TMP DP  RH WIND       PRES   REMARKS
ESTEVAN        CLOUDY    32  25  74 NE3       30.49R
KINDERSLEY     NOT AVBL
LLOYDMINSTER   CLOUDY    32  28  86 SE15G25   30.31F WCI  22
PRINCE ALBERT  MOSUNNY   34  21  60 S10       30.50F
REGINA         CLOUDY    30  25  80 SE8       30.50R WCI  23
YORKTON        NOT AVBL
N. BATTLEFORD  NOT AVBL
LA RONGE       MOSUNNY   32  21  64 S9        30.49F WCI  24
SASKATOON      PTSUNNY   32  25  74 SE12G17   30.48F WCI  23
SWIFT CURRENT  NOT AVBL
$$
NOTE: THESE ARE AUTOMATED STATIONS WITH LIMITED QUALITY CONTROL
      "FAIR" INDICATES FEW OR NO CLOUDS BELOW 12,000 FEET WITH NO
      SIGNIFICANT WEATHER AND/OR OBSTRUCTIONS TO VISIBILITY.
      SKY/WX - SKY CONDITION AND SIGNIFICANT WEATHER.
      TMP - AIR TEMPERATURE.    DP   - DEWPOINT TEMPERATURE.
      RH  - RELATIVE HUMIDITY.  PRES - PRESSURE.
      HX  - HEAT INDEX.         WCI  - WIND CHILL INDEX.
$



USA.gov is the U.S. government's official web portal to all federal, state and local government web resources and services.